Wind_Speed
18 20 21 22 23 23 23 23 23 23 24 26 28 29 29 29 29 29 28 29 30 29 29 28 28 28 28 28 27 26 25 24 22 21 20 19 17 15 14 13 12 12 11 10 10 10 9 8 8 7 7 6 6 6 6 6 6 6 6 5 6 7
18 20 22 22 23 23 23 23 23 24 25 26 28 28 28 28 29 29 29 29 30 30 29 28 28 28 28 27 27 26 25 23 22 21 19 17 15 14 13 13 12 11 10 10 9 9 8 7 7 6 6 5 5 5 5 5 5 5 6 6 6 7
19 20 21 21 22 22 23 23 24 24 26 27 28 28 28 29 29 30 30 30 30 30 29 29 29 29 28 28 26 25 24 23 21 19 17 16 15 14 13 12 11 10 9 9 9 8 7 7 6 5 5 5 5 5 5 5 5 6 6 6 6 6
20 21 22 22 23 23 23 24 25 25 26 27 28 29 29 30 30 30 30 30 30 30 30 30 30 29 29 28 26 25 24 22 20 18 16 16 15 14 13 11 10 9 8 8 8 7 7 6 6 5 5 5 5 5 5 6 6 6 7 6 6 6
20 22 23 24 24 24 25 25 25 26 27 27 28 29 30 30 30 30 31 31 30 30 30 30 30 30 29 28 26 25 24 21 19 18 17 16 16 14 12 10 9 8 7 7 7 7 7 6 6 6 6 6 6 6 6 7 7 7 7 7 7 7
20 21 22 23 24 24 25 25 25 26 26 27 28 30 30 30 30 31 31 31 31 31 31 31 31 30 29 28 27 25 23 21 20 19 17 16 15 14 12 10 8 7 6 6 6 6 6 6 6 6 6 7 7 7 7 7 7 7 7 7 8 8
18 20 22 23 24 25 25 26 26 27 27 28 29 30 30 30 30 31 31 32 32 32 32 32 31 30 29 28 27 25 23 22 21 20 18 17 15 13 11 9 8 6 5 5 5 5 5 5 6 6 7 8 8 8 8 8 8 8 8 8 8 8
15 19 22 23 25 26 27 27 27 28 28 28 30 31 30 30 31 32 32 32 33 33 32 33 32 31 30 29 27 25 24 22 22 21 19 17 15 13 11 9 8 6 5 4 4 3 4 5 6 7 7 8 8 9 9 9 9 9 9 9 9 9
15 19 22 24 25 26 28 29 29 29 29 29 30 31 31 31 31 32 33 33 33 33 33 33 33 32 30 29 27 26 25 24 22 21 19 16 14 13 11 10 8 6 4 3 2 2 2 4 6 7 8 9 9 10 10 10 10 11 10 11 11 10
13 18 22 24 26 27 28 28 28 29 30 30 31 31 32 33 33 33 33 33 33 33 34 34 33 32 30 29 28 27 26 25 23 20 19 17 15 13 12 10 8 6 5 3 2 1 1 3 6 7 8 9 10 11 11 12 12 12 12 12 12 12
13 17 23 25 26 28 28 28 29 30 31 31 32 33 33 34 34 34 34 33 34 34 34 34 33 31 30 29 29 29 27 26 23 21 19 17 15 14 12 10 9 7 6 4 3 2 2 4 6 7 8 9 11 12 12 13 13 13 14 13 13 13
14 18 22 24 27 28 28 29 31 32 32 32 33 34 34 35 35 35 34 34 34 34 34 34 33 31 31 30 31 30 29 26 24 22 20 18 16 15 13 11 10 9 7 6 5 4 3 5 6 7 8 10 12 13 14 14 14 14 14 15 14 14
12 17 21 25 28 29 30 31 32 33 33 34 35 35 35 35 35 35 35 35 34 34 33 34 33 32 32 32 32 32 30 27 25 23 21 19 18 16 14 12 11 10 9 8 7 6 5 5 6 7 9 11 13 14 15 15 15 15 15 15 15 15
13 17 22 26 29 31 33 33 33 33 35 36 37 36 35 36 36 35 35 34 34 34 34 34 34 34 33 33 33 33 31 28 26 24 23 21 20 18 16 14 13 12 11 10 9 8 7 7 8 8 10 11 13 14 15 16 16 16 16 16 15 15
17 21 25 28 31 34 35 35 35 36 37 36 35 35 35 35 35 35 35 35 34 34 35 35 35 35 35 35 34 33 31 30 28 26 25 23 21 19 17 16 15 14 13 12 11 9 9 8 9 10 11 12 13 14 15 16 16 16 17 17 16 16
17 22 25 28 31 32 32 33 34 34 33 33 33 34 35 35 36 36 36 36 36 35 35 36 37 37 36 36 35 34 33 31 30 28 27 25 23 21 19 18 17 16 15 14 12 11 11 10 10 11 11 13 13 14 15 16 17 17 17 17 17 17
18 21 24 27 29 30 30 32 32 31 31 32 33 34 36 37 37 37 37 37 36 35 36 37 37 37 36 36 35 35 34 33 32 30 29 27 24 23 21 20 19 18 17 15 14 14 13 12 11 12 13 13 14 14 15 16 18 18 18 17 17 17
22 23 24 26 28 30 31 33 33 32 32 34 35 36 37 37 36 36 37 37 36 36 37 38 38 37 37 36 36 36 36 35 34 33 30 28 26 24 23 22 21 20 19 17 17 16 15 13 13 13 13 14 14 15 16 17 18 18 18 18 18 17
23 23 24 25 28 32 33 34 34 33 33 34 35 36 35 35 35 36 37 36 35 36 37 38 38 38 38 38 38 38 38 37 36 34 31 29 28 27 26 25 24 22 20 19 19 19 17 15 14 14 14 14 14 15 17 18 18 19 19 18 18 17
21 23 25 27 29 32 32 32 33 33 32 32 33 33 32 33 35 36 36 35 36 37 38 38 39 39 39 39 40 40 39 38 37 35 33 31 30 29 28 27 25 23 22 21 21 20 19 16 15 15 15 15 15 16 18 19 18 19 19 18 17 16
20 21 24 25 27 28 28 29 30 30 29 29 30 30 31 34 36 36 36 37 38 38 39 39 40 40 39 40 41 41 40 39 37 35 34 33 31 30 29 27 26 25 25 24 23 22 21 18 16 16 16 15 15 17 18 19 18 19 19 18 17 16
20 20 22 23 24 24 25 26 27 28 28 27 28 30 32 36 38 37 38 38 37 38 38 39 39 40 40 41 41 40 39 38 37 35 34 33 32 31 29 29 28 27 26 26 25 24 22 20 17 16 16 16 16 17 18 19 19 20 20 18 17 16
18 18 19 20 20 21 23 24 26 26 26 26 27 31 34 36 36 36 36 36 35 36 37 38 39 40 40 41 39 38 37 37 37 36 35 34 33 31 31 30 29 29 28 28 27 25 23 21 19 17 17 17 17 18 19 20 21 20 20 19 18 17
14 15 15 16 19 21 22 24 25 24 24 25 28 31 32 33 33 33 33 33 33 34 35 37 38 39 39 38 37 36 36 36 36 36 35 34 33 32 32 31 30 30 30 29 28 27 25 23 21 19 18 18 18 18 19 21 21 20 19 19 19 18
14 14 15 16 18 20 21 23 24 23 24 26 26 27 27 28 29 29 29 30 31 33 34 35 36 37 37 37 36 36 36 35 35 35 34 33 33 32 32 32 31 31 31 31 30 29 27 25 23 21 19 18 19 19 19 20 20 20 19 20 20 18
15 14 15 16 17 18 20 22 22 23 24 23 22 22 23 25 25 25 26 28 29 31 32 33 33 34 35 36 35 35 35 35 34 34 34 34 33 33 33 33 32 32 32 32 32 31 29 26 24 22 20 19 19 19 18 19 20 19 19 20 20 19
14 15 14 14 15 17 19 19 20 22 21 19 18 19 21 21 22 23 25 26 28 29 30 30 31 32 33 34 35 35 35 35 35 34 35 35 34 35 35 35 34 34 34 33 33 32 30 27 24 22 21 20 19 19 18 19 19 19 20 21 22 21
12 14 14 13 14 15 16 18 19 19 18 17 18 19 20 20 21 23 23 24 26 26 27 29 30 31 32 33 34 35 36 36 37 37 36 36 36 36 37 36 34 34 33 33 33 32 29 26 24 23 21 20 20 20 19 19 19 19 19 20 21 20
12 13 13 13 14 14 15 17 18 18 19 19 19 19 20 20 22 23 24 24 25 25 27 28 29 30 31 32 33 34 34 36 37 37 37 37 38 38 37 36 34 33 33 34 34 32 28 25 24 24 22 21 21 21 20 20 20 19 19 20 21 20
14 14 14 15 16 16 17 19 19 20 21 21 20 19 20 21 22 24 24 24 25 25 27 28 29 30 31 32 34 35 36 37 38 39 41 42 42 42 41 39 38 37 37 36 34 30 26 26 27 27 25 23 21 21 20 20 20 19 19 20 19 18
16 17 17 18 17 18 19 19 19 20 21 22 21 20 19 20 21 22 23 23 23 25 26 27 29 30 31 32 34 36 37 38 39 40 42 42 41 40 39 39 39 39 38 36 34 30 28 28 29 28 25 22 20 19 19 20 20 19 18 17 16 16
16 17 18 18 17 16 17 17 17 17 18 19 19 19 19 20 19 20 21 22 22 24 25 26 27 28 30 31 32 33 34 34 35 36 37 36 35 34 33 32 33 33 32 31 31 30 28 27 26 23 20 19 18 18 18 19 18 18 17 16 15 17
15 16 17 16 14 13 13 13 13 14 14 15 15 16 18 19 20 22 23 23 23 24 24 25 26 27 28 29 29 30 31 31 31 32 32 32 31 30 29 28 27 26 26 27 27 27 25 24 22 18 17 17 16 17 18 19 19 19 19 17 16 19
15 15 14 13 11 11 11 11 11 11 12 12 13 13 14 16 19 22 23 23 23 24 24 24 25 25 26 27 27 28 28 28 29 30 30 30 30 29 29 28 27 26 25 23 23 23 23 22 20 18 16 16 17 18 19 20 21 22 21 19 20 23
12 12 11 10 9 9 9 8 8 9 9 10 11 12 13 14 16 19 21 21 21 21 22 23 23 24 25 25 26 26 26 26 26 26 26 25 26 27 27 27 28 28 25 22 20 20 20 20 18 17 16 17 18 19 20 20 22 22 21 20 22 25
9 8 8 8 7 7 7 7 7 9 9 10 11 11 12 13 15 16 18 18 18 19 20 21 22 23 24 24 24 25 25 25 25 24 21 19 19 21 22 23 23 22 20 19 18 18 17 17 16 16 16 17 18 19 19 20 21 21 21 22 25 27
7 6 7 7 7 7 7 7 8 9 9 10 11 11 12 12 13 15 16 17 17 17 18 18 19 20 21 21 22 22 23 23 23 21 20 18 17 17 18 20 19 18 17 16 16 16 17 17 17 17 17 17 18 19 18 18 20 21 21 23 25 27
5 6 6 6 6 6 6 7 8 8 9 10 10 10 11 11 12 13 14 14 15 15 15 15 15 16 17 18 18 19 19 20 20 20 19 19 18 17 16 15 14 15 16 16 15 15 16 17 17 17 17 17 18 17 17 19 22 22 23 25 27 28
Wind_Direction
164 163 165 168 169 170 169 169 171 172 174 174 172 171 169 168 166 163 162 160 157 156 156 156 156 154 153 151 150 150 148 144 140 135 130 127 124 120 115 108 99 93 86 79 72 67 63 59 54 48 43 39 36 31 25 21 16 14 19 16 3 359
166 165 165 167 167 169 169 169 171 171 172 174 173 171 170 169 167 165 163 161 159 158 158 158 157 156 154 153 152 152 148 144 140 136 133 130 125 120 112 105 99 93 87 81 76 71 66 60 56 51 42 36 31 27 20 12 7 5 6 6 359 353
164 165 166 167 167 169 170 171 172 172 174 175 174 173 171 169 168 167 165 163 162 161 160 160 159 157 156 155 155 154 149 145 143 139 137 131 125 121 116 110 105 98 92 87 78 71 67 60 54 48 38 32 24 15 10 1 357 356 354 353 350 343
162 163 165 167 169 171 173 174 174 174 175 176 176 175 173 171 170 170 168 166 166 165 163 162 160 160 160 158 158 155 150 148 146 143 140 135 130 127 123 116 110 104 96 88 78 68 63 55 47 39 27 21 12 3 358 350 345 345 341 338 335 329
163 163 166 169 171 173 175 176 177 177 177 178 179 178 175 174 174 172 171 169 168 167 165 164 163 163 163 161 160 157 154 152 150 147 144 141 138 135 129 122 115 108 97 85 73 63 55 44 35 26 14 6 359 353 347 339 334 332 327 324 322 318
163 166 169 171 174 175 177 178 179 180 179 181 182 179 177 177 176 174 173 171 169 169 168 167 166 166 166 165 164 161 159 157 155 153 151 148 145 142 136 130 123 114 99 82 69 59 50 38 26 13 2 355 348 341 334 327 322 318 314 314 313 311
168 172 173 174 175 177 178 180 182 182 183 184 183 181 179 179 178 177 175 173 171 171 170 170 169 169 169 169 168 166 164 164 161 160 159 156 153 149 146 142 137 125 104 86 74 58 41 28 14 1 352 343 335 330 323 316 313 308 306 307 307 308
174 176 177 178 178 179 180 182 184 184 184 186 185 183 181 180 181 179 176 176 175 173 173 173 172 173 173 173 172 171 170 169 168 166 165 164 161 158 157 156 152 140 120 103 87 58 34 18 1 349 342 333 324 320 313 308 305 304 304 305 304 304
180 179 179 180 181 182 184 185 186 185 185 186 187 185 183 183 183 181 179 179 178 177 177 177 176 176 177 178 176 175 175 175 174 173 171 170 170 170 170 168 165 158 143 127 104 64 24 3 350 340 333 324 316 310 305 302 301 300 301 301 300 300
183 179 180 181 182 185 187 187 187 185 186 187 187 187 187 185 184 182 181 181 181 181 181 181 180 180 182 183 181 181 181 179 179 179 178 178 179 180 182 181 177 174 170 166 161 146 348 344 338 329 323 315 307 302 299 297 296 297 297 296 297 298
184 181 182 182 183 185 186 186 186 187 189 189 188 189 189 188 186 184 183 184 185 185 185 183 182 184 187 187 186 186 186 184 184 185 185 186 187 189 191 191 189 190 192 196 205 222 291 320 321 317 311 305 299 296 295 294 294 294 295 295 297 298
188 183 183 184 185 186 184 185 187 188 190 190 190 191 191 190 189 187 186 187 188 188 187 186 186 188 190 191 191 191 190 189 190 190 192 194 196 198 199 200 201 205 209 212 217 232 271 298 303 303 300 297 295 293 293 293 294 294 294 296 297 298
188 185 186 188 188 186 186 188 189 189 191 191 192 192 192 191 191 190 190 190 191 191 189 189 189 191 194 196 196 195 194 194 195 196 199 201 203 205 205 207 211 216 222 225 229 242 262 279 287 290 292 292 292 293 294 294 294 294 294 295 298 299
191 191 191 189 188 189 190 190 188 190 192 193 194 192 191 192 193 193 193 193 194 193 192 192 193 194 198 199 199 199 198 198 200 201 204 207 209 210 210 213 218 222 229 233 236 246 257 269 276 280 284 287 288 289 291 292 293 293 294 295 296 296
196 195 192 190 192 193 193 191 190 193 195 194 193 192 191 193 195 195 196 196 197 196 195 196 196 198 201 202 202 202 201 202 205 207 210 212 213 214 215 218 223 226 232 236 240 247 254 261 266 272 277 281 283 283 284 286 287 288 289 290 290 290
197 198 196 195 197 196 195 194 194 196 195 192 192 193 193 195 197 198 199 199 199 198 197 199 200 201 203 204 205 204 204 207 209 211 214 215 215 217 219 222 227 231 234 239 243 247 252 256 259 265 271 275 278 278 277 279 281 282 282 283 283 285
192 196 196 197 197 193 193 195 195 195 194 193 194 195 197 199 200 201 202 202 201 200 199 201 203 203 205 206 207 207 208 210 213 215 217 217 218 222 225 227 230 234 237 241 245 248 251 253 255 259 266 271 273 273 272 273 275 276 277 278 279 281
192 192 191 191 191 191 193 195 195 194 194 195 197 199 201 202 202 202 204 203 201 201 202 203 204 205 208 209 209 210 211 213 216 218 219 219 222 226 228 230 232 234 238 242 245 248 249 250 253 257 263 268 269 268 269 269 271 272 274 276 277 279
191 190 188 188 189 192 195 196 195 195 195 196 199 201 202 202 203 205 205 204 203 203 205 206 206 208 210 211 212 213 214 216 218 220 220 222 224 227 229 232 234 235 239 242 245 248 249 248 251 256 261 264 265 265 266 266 269 271 273 275 276 277
187 188 190 190 192 196 197 196 195 195 195 197 199 200 200 202 206 208 207 206 206 207 208 208 210 211 212 213 215 217 217 219 220 222 224 225 228 231 234 235 236 238 240 243 245 248 248 248 249 254 260 263 262 262 263 265 267 270 272 273 274 275
181 184 188 189 191 195 197 196 195 193 194 196 197 197 199 205 209 210 210 211 211 210 211 211 212 214 215 217 219 220 220 222 223 225 227 228 231 234 235 236 237 239 241 243 245 246 248 248 249 252 259 261 258 258 261 263 264 268 270 271 271 272
171 175 182 185 187 189 191 191 191 190 192 194 194 196 203 211 214 215 215 215 214 212 213 213 215 216 219 221 223 223 223 224 225 226 228 229 231 233 235 236 237 240 242 244 244 246 248 250 249 251 255 258 256 255 257 259 261 265 268 268 265 265
171 175 179 182 183 183 187 188 188 190 193 192 195 203 213 218 219 219 218 217 215 214 215 216 218 221 223 224 225 225 225 226 227 228 229 229 229 230 232 235 237 239 241 242 244 245 247 250 251 250 251 253 253 251 252 256 260 264 266 264 259 258
166 172 175 181 184 186 188 188 188 190 191 193 202 215 221 222 221 220 219 217 217 217 218 220 222 223 224 225 225 225 226 227 228 229 229 229 228 229 231 233 235 238 239 241 243 244 245 248 251 250 248 249 250 248 247 253 260 264 263 259 257 257
160 167 171 179 186 188 188 188 188 189 191 199 213 223 223 222 221 220 219 219 219 220 221 222 224 224 225 225 226 226 227 227 227 227 227 227 227 227 229 231 233 235 237 239 242 243 244 245 248 249 248 246 247 248 247 250 257 259 255 253 253 254
159 164 171 180 187 189 191 192 191 191 197 210 223 225 223 223 222 220 219 220 220 221 223 224 225 225 226 226 226 226 226 226 225 225 226 226 226 226 227 229 230 231 234 238 240 242 243 243 244 246 247 245 245 246 247 248 250 249 246 248 251 253
163 166 173 184 192 194 197 199 197 197 207 222 229 227 227 226 222 220 221 223 223 224 225 225 226 227 227 228 227 226 226 225 224 224 224 224 224 224 226 227 228 229 232 236 239 243 245 245 244 242 242 244 245 244 243 245 245 241 239 243 250 254
168 172 177 187 198 201 203 204 205 210 223 234 234 231 232 228 223 223 225 226 227 227 227 227 228 228 229 229 229 229 229 227 225 224 223 223 222 223 225 226 227 229 231 234 239 243 245 246 246 243 240 241 243 243 241 241 239 236 235 240 246 251
173 179 186 196 205 210 212 214 218 225 233 237 236 234 233 229 227 228 229 229 230 230 229 230 230 230 229 229 229 228 228 228 228 225 223 222 221 222 224 225 226 227 229 233 237 239 241 243 245 245 243 239 239 242 243 241 238 234 232 236 242 246
187 191 199 208 214 218 221 224 228 233 233 234 235 236 235 233 232 232 233 233 233 232 233 233 233 232 231 230 229 228 227 227 226 225 225 227 226 224 223 223 225 226 228 231 232 233 233 236 239 243 245 244 243 242 241 238 235 232 231 236 240 244
203 205 211 218 223 227 230 234 237 238 236 235 235 237 238 239 238 237 238 237 236 236 237 236 235 234 234 233 232 231 229 228 227 228 229 231 231 230 229 228 229 231 232 233 233 232 230 234 241 247 250 249 247 246 243 240 237 237 238 239 241 244
216 218 222 227 228 231 237 243 247 250 249 247 246 245 245 245 245 246 245 243 242 242 240 239 239 237 236 235 234 233 232 230 230 231 233 234 234 234 236 237 239 242 241 240 241 241 241 245 253 256 251 246 244 243 242 240 237 237 237 235 237 244
224 227 231 233 234 236 243 249 255 259 263 265 263 259 255 251 249 250 250 249 248 247 245 244 243 241 239 238 238 238 237 236 234 235 236 238 240 239 238 238 241 246 248 247 247 247 246 249 254 251 243 237 232 229 229 231 232 234 235 235 241 243
232 236 241 246 249 252 253 254 258 263 268 272 272 269 263 256 252 251 253 253 253 252 250 248 246 244 242 240 239 240 241 241 241 241 240 240 242 243 243 241 239 242 245 248 250 250 248 247 245 242 238 233 228 227 229 232 235 238 238 241 245 240
243 246 254 261 262 262 261 261 265 271 274 275 274 271 268 263 258 256 256 256 255 254 252 249 247 245 243 241 240 240 241 241 242 245 247 247 248 249 250 249 247 245 244 243 245 249 253 253 251 249 245 238 234 235 236 236 239 239 238 243 244 234
251 251 257 261 261 262 266 271 273 275 277 277 276 274 272 268 264 262 260 255 253 253 252 251 249 247 246 245 243 242 242 242 243 245 249 251 249 248 247 246 245 243 243 241 240 241 245 249 250 249 246 241 239 240 239 240 241 239 240 244 240 229
249 250 253 256 259 263 268 271 273 274 275 275 275 273 272 268 264 262 259 255 252 251 252 254 252 249 247 246 244 243 243 244 245 246 246 246 246 244 244 243 239 233 233 237 242 242 243 245 247 248 248 247 245 244 242 239 238 237 238 240 233 228
246 249 254 260 264 268 268 268 271 272 274 275 274 270 266 264 260 258 256 255 252 250 251 253 253 250 248 247 247 247 247 247 248 248 247 246 245 244 245 245 241 235 232 234 238 241 243 245 248 250 251 249 246 243 239 237 239 239 237 234 230 231
Height
814 816 818 820 822 824 826 828 831 833 835 838 840 842 844 846 848 849 852 853 854 855 857 859 860 862 864 865 868 870 872 874 875 876 878 879 881 883 884 886 886 887 887 887 887 887 888 889 889 890 890 890 891 891 890 890 890 890 890 890 889 889
813 815 817 819 821 824 826 828 830 832 835 838 840 842 844 846 847 848 850 852 853 854 856 858 860 861 863 865 868 870 871 873 874 876 877 879 881 883 884 885 886 886 886 886 887 887 888 888 889 889 890 890 890 890 890 890 889 889 889 889 888 888
812 814 817 819 821 824 825 828 830 832 835 837 839 842 843 845 846 847 849 850 852 853 855 857 859 861 863 865 867 869 870 872 873 875 877 879 881 882 884 885 885 885 886 886 886 887 888 888 888 889 889 889 889 889 889 888 888 888 888 888 888 887
810 813 815 818 820 822 824 827 829 831 834 836 838 841 842 843 844 846 847 849 851 852 854 856 858 860 862 864 867 868 869 871 872 874 876 878 880 882 883 884 884 885 885 885 886 886 887 887 887 888 887 888 888 887 887 887 887 887 887 886 886 886
808 811 813 816 818 820 823 825 827 830 832 835 837 839 840 842 843 845 846 848 850 851 853 855 857 859 862 864 866 867 868 870 871 873 875 877 879 880 882 882 883 884 884 885 885 886 886 886 886 886 886 886 886 886 886 886 886 885 885 885 885 885
806 809 811 814 816 818 821 823 826 829 831 834 836 837 839 840 842 844 845 847 849 851 852 854 856 858 860 863 864 865 867 868 870 873 875 876 878 879 880 881 882 883 883 884 884 885 885 885 885 885 885 885 885 885 885 885 884 884 884 884 883 883
803 805 808 811 813 816 819 822 825 828 830 832 834 836 838 839 841 843 844 846 848 850 851 853 855 857 859 861 863 864 865 867 870 872 873 875 876 877 878 879 881 881 882 882 883 883 883 883 883 883 883 883 883 883 883 883 883 883 882 882 882 881
800 802 805 808 811 813 816 820 823 826 829 831 833 835 836 838 840 841 843 845 846 848 850 852 853 855 857 859 861 862 864 866 868 870 872 873 874 875 876 878 879 880 880 881 881 882 882 882 882 882 882 882 882 882 882 881 881 881 880 880 880 879
797 799 802 805 808 811 814 817 820 823 827 829 831 833 835 836 839 840 842 844 845 847 848 850 852 853 855 857 859 861 863 865 867 868 870 871 872 873 875 876 877 878 878 879 879 880 880 880 880 880 880 880 880 880 880 879 879 879 878 878 877 877
793 796 800 803 806 809 812 815 818 821 824 827 829 831 833 835 837 838 840 842 843 845 846 848 850 852 854 856 857 860 861 863 865 867 868 869 870 871 873 874 875 876 877 877 878 878 878 878 878 878 878 878 878 878 878 877 877 876 876 876 875 875
790 793 796 800 803 807 809 813 816 819 822 824 826 829 830 832 835 836 838 840 841 843 845 846 848 850 852 854 856 858 860 861 863 865 865 866 867 870 871 872 873 874 875 875 876 876 876 876 877 876 876 877 876 876 876 875 875 874 874 874 873 873
786 790 794 797 800 803 806 809 812 814 818 820 823 826 827 830 832 834 835 837 839 841 843 844 846 848 849 852 854 856 857 859 861 862 863 864 865 867 869 870 871 872 873 874 874 874 874 874 875 875 875 875 875 874 874 873 873 873 872 872 871 871
786 789 791 793 796 799 802 805 808 811 815 817 819 821 824 827 829 831 832 834 836 839 840 842 843 845 847 849 852 853 855 857 858 860 861 862 863 865 866 868 869 870 871 872 872 872 872 872 872 873 873 873 873 872 871 871 871 870 870 870 869 869
782 784 786 789 792 795 798 801 805 808 810 812 815 818 822 824 826 828 830 832 835 836 838 839 841 843 845 847 849 851 853 855 856 857 858 859 861 862 864 865 867 868 869 869 870 870 870 870 870 871 871 871 871 870 869 869 868 868 868 868 867 867
776 779 781 785 787 790 793 797 800 803 804 808 812 816 819 822 823 826 828 830 832 833 834 836 838 840 842 844 846 848 850 852 853 854 855 857 858 860 861 863 864 865 866 867 867 867 867 868 868 869 869 869 868 868 867 866 866 865 865 865 865 865
774 777 779 782 785 788 793 796 798 801 804 808 811 814 817 819 821 824 825 827 828 829 831 833 835 837 839 841 844 846 847 849 850 851 853 854 856 857 859 860 861 862 864 864 865 865 865 866 866 866 867 866 866 866 865 864 863 863 863 862 862 862
772 775 777 780 783 787 791 794 797 800 803 806 808 811 814 816 818 820 821 823 825 826 828 830 832 835 837 839 841 843 844 846 847 848 850 851 853 854 856 857 858 859 861 861 862 862 863 863 864 864 864 863 863 863 862 862 861 860 860 860 859 859
768 771 774 777 781 785 788 791 794 797 800 803 805 808 810 812 815 816 818 819 821 823 825 826 829 832 834 836 838 839 841 842 843 845 847 848 850 852 853 854 855 856 857 858 859 859 860 861 861 861 861 860 860 860 859 859 859 858 858 857 857 857
767 770 773 776 779 782 784 787 791 794 797 800 802 804 807 809 811 812 813 816 818 820 822 824 826 829 831 833 834 835 837 838 840 842 843 846 847 848 849 851 852 853 854 855 856 856 857 858 858 857 858 858 857 857 857 856 856 855 855 854 854 854
766 769 772 775 777 779 782 785 788 791 794 796 798 801 804 806 807 808 810 813 815 817 819 820 823 825 827 829 830 831 833 834 836 839 840 842 844 844 846 847 848 850 850 851 852 853 853 855 855 854 855 855 855 854 854 854 853 852 852 851 851 851
766 769 771 773 775 777 780 783 786 788 791 793 796 799 801 802 803 804 807 809 811 813 815 817 819 821 823 825 826 827 829 831 833 836 837 839 840 841 843 844 845 846 847 848 849 849 850 851 852 851 851 852 852 852 851 851 850 849 849 848 849 849
766 768 770 772 774 776 779 782 784 787 789 791 794 796 797 797 798 801 803 805 808 811 813 814 816 818 819 821 822 824 826 829 831 833 834 836 837 838 840 841 841 842 843 844 845 846 846 847 848 848 848 848 849 849 848 848 847 846 846 846 846 846
766 768 770 772 774 776 779 781 783 785 787 790 792 792 792 793 796 799 801 803 806 808 810 811 813 815 816 817 819 822 824 826 827 829 830 832 834 835 836 837 838 838 839 840 841 842 842 843 844 845 845 845 845 845 845 844 843 843 843 842 843 843
767 769 770 772 774 776 778 780 782 784 786 788 789 788 789 792 794 797 799 801 803 805 807 809 810 811 813 815 817 819 821 822 824 825 827 829 830 831 832 833 834 835 835 836 837 837 838 839 840 840 841 841 841 842 841 840 839 840 840 839 839 839
768 769 771 772 774 776 777 779 781 783 785 786 785 786 788 791 793 795 797 799 800 802 803 805 807 809 811 812 814 816 817 819 820 822 823 825 826 827 828 829 830 830 831 831 832 832 833 835 835 836 837 837 837 837 837 837 837 837 837 836 836 836
767 769 771 772 774 775 777 778 780 782 783 783 783 785 787 789 791 793 795 796 797 799 801 802 804 806 807 809 810 812 814 815 816 818 819 821 822 823 824 824 825 826 826 826 826 827 828 830 831 831 832 833 833 833 833 834 834 834 834 833 833 833
767 769 771 772 773 775 776 778 779 781 781 782 783 785 786 787 789 790 792 793 795 796 798 800 801 803 804 805 807 808 809 810 812 813 815 816 818 819 819 820 820 821 821 821 821 822 823 825 826 827 828 828 828 828 829 829 830 830 831 831 830 830
767 769 770 772 773 774 775 777 778 779 781 781 783 784 785 786 787 788 789 791 792 794 795 797 798 799 800 802 803 804 805 806 807 809 810 811 813 814 814 815 815 816 817 817 817 818 819 820 821 823 824 824 824 824 824 825 825 826 827 827 827 828
767 768 769 771 772 773 775 776 777 779 780 781 782 783 784 785 785 786 787 788 790 791 792 793 794 795 796 797 799 800 801 802 804 805 806 806 807 808 809 810 810 811 812 812 812 813 815 816 817 817 819 820 820 820 821 821 821 821 822 823 823 824
766 767 768 770 771 772 773 774 776 778 779 780 781 782 782 783 783 784 785 786 787 788 789 789 790 791 792 793 794 795 796 797 798 799 799 799 800 800 802 803 803 804 805 806 807 809 811 811 811 811 813 814 816 817 817 818 817 817 818 818 819 820
765 766 767 768 770 771 772 773 775 776 777 779 780 780 781 781 781 782 783 784 785 786 786 787 788 788 789 790 790 791 792 793 794 794 794 795 796 797 798 799 799 799 800 802 804 805 806 806 806 806 808 810 811 813 814 814 814 814 814 815 816 817
764 765 766 767 769 770 771 772 773 775 776 777 778 778 779 780 780 781 781 782 783 783 784 785 786 786 787 787 788 788 789 790 792 792 792 793 795 796 797 798 798 799 800 801 802 803 803 803 804 805 806 807 808 809 810 811 812 812 812 813 813 814
763 764 765 766 768 769 770 771 772 773 774 775 776 776 777 778 778 779 779 779 780 781 782 783 783 784 785 785 786 787 787 788 789 790 791 792 793 794 796 797 797 798 799 799 800 801 802 802 802 803 804 804 805 806 807 808 810 810 811 811 811 810
762 763 764 766 767 768 769 770 771 771 772 773 773 774 774 775 776 776 776 777 778 779 780 780 781 782 782 783 783 784 785 786 786 787 788 790 791 791 793 794 795 796 797 797 797 798 799 800 801 801 802 802 803 803 804 805 807 807 808 809 808 806
761 762 763 765 766 767 768 769 769 769 770 770 770 771 771 772 773 773 774 775 776 777 777 778 778 779 779 780 781 781 782 783 784 784 785 787 788 789 790 791 792 793 794 795 795 795 796 797 799 799 800 800 800 801 801 802 803 803 804 805 804 802
760 761 762 763 764 766 766 766 766 766 767 767 768 768 769 769 770 771 772 773 774 774 774 775 775 776 776 777 778 779 780 781 781 782 784 785 786 787 787 788 789 790 792 793 793 794 794 795 796 797 797 798 798 798 799 799 800 800 800 800 799 797
759 761 761 762 763 764 763 763 764 764 764 765 766 766 767 768 768 769 770 770 771 772 772 772 773 774 774 775 776 777 778 779 780 781 782 783 784 784 785 785 786 788 789 790 791 792 793 793 794 794 795 795 795 796 797 797 796 795 795 795 794 793
759 760 760 761 761 761 761 761 762 762 763 764 764 764 765 766 766 767 767 768 768 769 770 770 771 772 773 774 774 776 777 777 779 780 780 781 782 783 783 784 785 786 787 788 789 790 790 791 791 791 792 792 792 793 794 793 791 791 791 791 790 790